TimePDT,TemperatureF,Dew PointF,Humidity,Sea Level PressureIn,VisibilityMPH,Wind Direction,Wind SpeedMPH,Gust SpeedMPH,PrecipitationIn,Events,Conditions,WindDirDegrees,DateUTC
12:53 AM,37.9,25.0,60,30.59,10.0,WNW,6.9,-,N/A,,Clear,290,2013-05-02 07:53:00
1:53 AM,37.9,26.1,62,30.58,10.0,WNW,6.9,-,N/A,,Clear,290,2013-05-02 08:53:00
2:53 AM,37.0,27.0,67,30.58,10.0,West,5.8,-,N/A,,Clear,280,2013-05-02 09:53:00
3:53 AM,36.0,26.1,67,30.58,10.0,West,6.9,-,N/A,,Clear,260,2013-05-02 10:53:00
4:53 AM,35.1,27.0,72,30.57,10.0,West,6.9,-,N/A,,Clear,270,2013-05-02 11:53:00
5:53 AM,33.1,26.1,75,30.57,10.0,West,6.9,-,N/A,,Clear,280,2013-05-02 12:53:00
6:53 AM,39.9,28.0,63,30.57,10.0,WNW,6.9,-,N/A,,Clear,290,2013-05-02 13:53:00
7:53 AM,48.9,28.9,46,30.57,10.0,Calm,Calm,-,N/A,,Clear,0,2013-05-02 14:53:00
8:53 AM,54.0,30.9,41,30.54,10.0,WNW,3.5,-,N/A,,Clear,300,2013-05-02 15:53:00
9:53 AM,59.0,30.0,33,30.52,10.0,Calm,Calm,-,N/A,,Clear,0,2013-05-02 16:53:00
10:53 AM,64.0,27.0,25,30.49,10.0,Calm,Calm,-,N/A,,Clear,0,2013-05-02 17:53:00
11:53 AM,68.0,21.0,17,30.47,10.0,South,8.1,-,N/A,,Clear,180,2013-05-02 18:53:00
12:53 PM,70.0,24.1,18,30.43,10.0,Variable,4.6,-,N/A,,Clear,0,2013-05-02 19:53:00
1:53 PM,72.0,24.1,17,30.40,10.0,ENE,3.5,-,N/A,,Clear,70,2013-05-02 20:53:00
2:53 PM,75.0,26.1,16,30.36,10.0,Variable,3.5,-,N/A,,Clear,0,2013-05-02 21:53:00
3:53 PM,75.0,26.1,16,30.32,10.0,Calm,Calm,-,N/A,,Clear,0,2013-05-02 22:53:00
4:53 PM,75.0,27.0,17,30.30,10.0,Calm,Calm,-,N/A,,Clear,0,2013-05-02 23:53:00
5:53 PM,75.0,28.0,18,30.28,10.0,East,3.5,-,N/A,,Clear,100,2013-05-03 00:53:00
6:53 PM,73.9,27.0,18,30.27,10.0,North,3.5,-,N/A,,Clear,10,2013-05-03 01:53:00
7:53 PM,69.1,37.0,31,30.25,10.0,Calm,Calm,-,N/A,,Clear,0,2013-05-03 02:53:00
8:53 PM,63.0,39.9,43,30.26,9.0,WNW,4.6,-,N/A,,Clear,290,2013-05-03 03:53:00
9:53 PM,61.0,41.0,48,30.27,10.0,Variable,4.6,-,N/A,,Clear,0,2013-05-03 04:53:00
10:53 PM,59.0,37.9,46,30.25,10.0,WNW,3.5,-,N/A,,Clear,290,2013-05-03 05:53:00
11:53 PM,57.0,37.9,49,30.24,10.0,WSW,6.9,-,N/A,,Clear,240,2013-05-03 06:53:00